| time (UTC) | temp F | wind direction | speed MPH | gust MPH | rain 1hr in | rain 24hr in | rain mn in | humidity % | barometer mb |
| 20260506035517 | 61 | 203 | 8.0 | 15.0 | 0.00 | 0.00 | 0.00 | 76 | 1011.2 |
| 20260506034517 | 61 | 203 | 8.0 | 19.0 | 0.00 | 0.00 | 0.00 | 75 | 1011.1 |
| 20260506033517 | 61 | 203 | 10.0 | 20.0 | 0.00 | 0.00 | 0.00 | 75 | 1011.1 |
| 20260506032517 | 61 | 203 | 8.0 | 21.0 | 0.00 | 0.00 | 0.00 | 75 | 1011.0 |
| 20260506031537 | 62 | 203 | 10.0 | 22.0 | 0.00 | 0.00 | 0.00 | 75 | 1011.0 |
| 20260506030537 | 62 | 203 | 11.0 | 22.0 | 0.00 | 0.00 | 0.00 | 74 | 1010.9 |
| 20260506025517 | 62 | 225 | 8.0 | 20.0 | 0.00 | 0.00 | 0.00 | 74 | 1011.0 |
| 20260506024517 | 62 | 203 | 11.0 | 22.0 | 0.00 | 0.00 | 0.00 | 73 | 1010.9 |
| 20260506023537 | 62 | 203 | 11.0 | 18.0 | 0.00 | 0.00 | 0.00 | 73 | 1010.9 |
| 20260506022517 | 63 | 203 | 11.0 | 28.0 | 0.00 | 0.00 | 0.00 | 72 | 1011.0 |
| 20260506021517 | 63 | 225 | 11.0 | 21.0 | 0.00 | 0.00 | 0.00 | 71 | 1011.2 |
| 20260506020517 | 63 | 203 | 11.0 | 26.0 | 0.00 | 0.00 | 0.00 | 70 | 1010.9 |
| 20260506015517 | 63 | 180 | 10.0 | 24.0 | 0.00 | 0.00 | 0.00 | 69 | 1010.9 |
| 20260506014517 | 63 | 203 | 11.0 | 21.0 | 0.00 | 0.00 | 0.00 | 69 | 1010.9 |
| 20260506013517 | 63 | 203 | 9.0 | 21.0 | 0.00 | 0.00 | 0.00 | 69 | 1010.7 |
| 20260506012517 | 63 | 203 | 10.0 | 22.0 | 0.00 | 0.00 | 0.00 | 68 | 1010.7 |
| 20260506011517 | 63 | 203 | 11.0 | 21.0 | 0.00 | 0.00 | 0.00 | 68 | 1010.6 |
| 20260506010517 | 64 | 203 | 9.0 | 24.0 | 0.00 | 0.00 | 0.00 | 67 | 1010.4 |
| 20260506005537 | 64 | 203 | 10.0 | 23.0 | 0.00 | 0.00 | 0.00 | 67 | 1010.3 |
| 20260506004537 | 64 | 225 | 12.0 | 23.0 | 0.00 | 0.00 | 0.00 | 67 | 1010.4 |
| 20260506003516 | 64 | 203 | 11.0 | 26.0 | 0.00 | 0.00 | 0.00 | 66 | 1010.3 |
| 20260506002517 | 64 | 225 | 9.0 | 21.0 | 0.00 | 0.00 | 0.00 | 65 | 1010.1 |
| 20260506001537 | 64 | 225 | 9.0 | 17.0 | 0.00 | 0.00 | 0.00 | 66 | 1010.0 |
| 20260506000516 | 64 | 203 | 8.0 | 17.0 | 0.00 | 0.00 | 0.00 | 65 | 1009.9 |
| 20260505235516 | 64 | 203 | 10.0 | 21.0 | 0.00 | 0.00 | 0.00 | 65 | 1010.0 |
| 20260505234536 | 65 | 203 | 10.0 | 22.0 | 0.00 | 0.00 | 0.00 | 64 | 1009.8 |
| 20260505233517 | 65 | 180 | 9.0 | 20.0 | 0.00 | 0.00 | 0.00 | 63 | 1009.5 |
| 20260505232517 | 65 | 203 | 11.0 | 24.0 | 0.00 | 0.00 | 0.00 | 62 | 1009.5 |
| 20260505231516 | 65 | 203 | 10.0 | 19.0 | 0.00 | 0.00 | 0.00 | 62 | 1009.4 |
| 20260505230517 | 66 | 203 | 11.0 | 24.0 | 0.00 | 0.00 | 0.00 | 61 | 1009.4 |
| 20260505225516 | 66 | 203 | 10.0 | 23.0 | 0.00 | 0.00 | 0.00 | 60 | 1009.3 |
| 20260505224517 | 66 | 203 | 12.0 | 20.0 | 0.00 | 0.00 | 0.00 | 59 | 1009.2 |
| 20260505223536 | 67 | 225 | 12.0 | 27.0 | 0.00 | 0.00 | 0.00 | 59 | 1009.1 |
| 20260505222517 | 67 | 203 | 13.0 | 28.0 | 0.00 | 0.00 | 0.00 | 58 | 1009.0 |
| 20260505221516 | 68 | 225 | 10.0 | 25.0 | 0.00 | 0.00 | 0.00 | 58 | 1009.1 |
| 20260505220517 | 68 | 225 | 9.0 | 21.0 | 0.00 | 0.00 | 0.00 | 58 | 1008.9 |
| 20260505215516 | 68 | 203 | 8.0 | 18.0 | 0.00 | 0.00 | 0.00 | 58 | 1009.0 |
| 20260505214517 | 68 | 203 | 9.0 | 21.0 | 0.00 | 0.00 | 0.00 | 58 | 1008.9 |
| 20260505213536 | 69 | 203 | 12.0 | 24.0 | 0.00 | 0.00 | 0.00 | 57 | 1008.8 |
| 20260505212516 | 69 | 203 | 9.0 | 20.0 | 0.00 | 0.00 | 0.00 | 58 | 1008.7 |
| 20260505211516 | 69 | 203 | 11.0 | 24.0 | 0.00 | 0.00 | 0.00 | 59 | 1008.7 |
| 20260505210516 | 69 | 203 | 10.0 | 21.0 | 0.00 | 0.00 | 0.00 | 58 | 1008.6 |
| 20260505205516 | 70 | 203 | 9.0 | 23.0 | 0.00 | 0.00 | 0.00 | 57 | 1008.6 |
| 20260505204516 | 70 | 225 | 7.0 | 21.0 | 0.00 | 0.00 | 0.00 | 57 | 1008.8 |
| 20260505203536 | 70 | 203 | 7.0 | 16.0 | 0.00 | 0.00 | 0.00 | 58 | 1008.7 |
| 20260505202516 | 71 | 203 | 5.0 | 12.0 | 0.00 | 0.00 | 0.00 | 57 | 1008.7 |
| 20260505201536 | 71 | 203 | 8.0 | 16.0 | 0.00 | 0.00 | 0.00 | 57 | 1008.8 |
| 20260505200516 | 71 | 203 | 9.0 | 18.0 | 0.00 | 0.00 | 0.00 | 57 | 1008.8 |
| 20260505195516 | 70 | 203 | 10.0 | 22.0 | 0.00 | 0.00 | 0.00 | 57 | 1008.8 |
| 20260505194536 | 70 | 203 | 9.0 | 20.0 | 0.00 | 0.00 | 0.00 | 57 | 1009.1 |
| 20260505193536 | 70 | 203 | 9.0 | 18.0 | 0.00 | 0.00 | 0.00 | 57 | 1009.1 |
| 20260505192516 | 71 | 203 | 10.0 | 20.0 | 0.00 | 0.00 | 0.00 | 57 | 1009.3 |
| 20260505191516 | 70 | 180 | 8.0 | 15.0 | 0.00 | 0.00 | 0.00 | 58 | 1009.4 |
| 20260505190516 | 71 | 180 | 8.0 | 15.0 | 0.00 | 0.00 | 0.00 | 58 | 1009.6 |
| 20260505185516 | 71 | 180 | 10.0 | 19.0 | 0.00 | 0.00 | 0.00 | 57 | 1009.8 |
| 20260505184536 | 71 | 203 | 9.0 | 21.0 | 0.00 | 0.00 | 0.00 | 57 | 1009.8 |
| 20260505183516 | 71 | 203 | 11.0 | 25.0 | 0.00 | 0.00 | 0.00 | 57 | 1009.9 |
| 20260505182516 | 71 | 203 | 9.0 | 15.0 | 0.00 | 0.00 | 0.00 | 58 | 1009.9 |
| 20260505181516 | 71 | 203 | 7.0 | 15.0 | 0.00 | 0.00 | 0.00 | 58 | 1010.0 |
| 20260505180536 | 71 | 203 | 7.0 | 19.0 | 0.00 | 0.00 | 0.00 | 57 | 1010.3 |
| 20260505175516 | 71 | 180 | 9.0 | 16.0 | 0.00 | 0.00 | 0.00 | 58 | 1010.4 |
| 20260505174516 | 71 | 203 | 9.0 | 17.0 | 0.00 | 0.00 | 0.00 | 57 | 1010.3 |
| 20260505173516 | 72 | 203 | 5.0 | 15.0 | 0.00 | 0.00 | 0.00 | 58 | 1010.3 |
| 20260505172556 | 72 | 180 | 6.0 | 16.0 | 0.00 | 0.00 | 0.00 | 59 | 1010.4 |
| 20260505171516 | 72 | 203 | 9.0 | 19.0 | 0.00 | 0.00 | 0.00 | 55 | 1010.4 |
| 20260505170516 | 73 | 203 | 6.0 | 15.0 | 0.00 | 0.00 | 0.00 | 57 | 1010.4 |
| 20260505165516 | 72 | 180 | 8.0 | 17.0 | 0.00 | 0.00 | 0.00 | 56 | 1010.5 |
| 20260505164516 | 73 | 203 | 7.0 | 13.0 | 0.00 | 0.00 | 0.00 | 55 | 1010.5 |
| 20260505163516 | 73 | 180 | 7.0 | 13.0 | 0.00 | 0.00 | 0.00 | 55 | 1010.8 |
| 20260505162516 | 74 | 180 | 6.0 | 14.0 | 0.00 | 0.00 | 0.00 | 54 | 1010.9 |
| 20260505161516 | 73 | 158 | 4.0 | 13.0 | 0.00 | 0.00 | 0.00 | 55 | 1010.8 |
| 20260505160556 | 73 | 203 | 6.0 | 18.0 | 0.00 | 0.00 | 0.00 | 53 | 1011.1 |
| 20260505152516 | 71 | 225 | 6.0 | 15.0 | 0.00 | 0.00 | 0.00 | 57 | 1011.4 |
| 20260505151516 | 70 | 180 | 6.0 | 12.0 | 0.00 | 0.00 | 0.00 | 58 | 1011.5 |
| 20260505150516 | 70 | 203 | 5.0 | 11.0 | 0.00 | 0.00 | 0.00 | 59 | 1011.8 |
| 20260505140516 | 68 | 203 | 6.0 | 11.0 | 0.00 | 0.00 | 0.00 | 62 | 1011.4 |
| 20260505124515 | 63 | 203 | 4.0 | 9.0 | 0.00 | 0.00 | 0.00 | 70 | 1011.2 |
| 20260505123516 | 62 | 203 | 3.0 | 7.0 | 0.00 | 0.00 | 0.00 | 72 | 1010.9 |
| 20260505122516 | 61 | 203 | 4.0 | 9.0 | 0.00 | 0.00 | 0.00 | 74 | 1011.1 |
| 20260505121516 | 60 | 203 | 4.0 | 8.0 | 0.00 | 0.00 | 0.00 | 76 | 1011.2 |
| 20260505120516 | 59 | 203 | 3.0 | 6.0 | 0.00 | 0.00 | 0.00 | 78 | 1011.3 |
| 20260505115516 | 58 | 203 | 3.0 | 7.0 | 0.00 | 0.00 | 0.00 | 79 | 1011.1 |
| 20260505114516 | 58 | 203 | 4.0 | 10.0 | 0.00 | 0.00 | 0.00 | 80 | 1011.4 |
| 20260505113515 | 57 | 203 | 4.0 | 8.0 | 0.00 | 0.00 | 0.00 | 81 | 1011.3 |
| 20260505112515 | 56 | 225 | 4.0 | 8.0 | 0.00 | 0.00 | 0.00 | 84 | 1011.3 |
| 20260505111516 | 55 | 203 | 4.0 | 8.0 | 0.00 | 0.00 | 0.00 | 85 | 1011.3 |
| 20260505110516 | 55 | 203 | 4.0 | 10.0 | 0.00 | 0.00 | 0.00 | 85 | 1011.3 |
| 20260505101515 | 54 | 203 | 3.0 | 8.0 | 0.00 | 0.00 | 0.00 | 86 | 1010.3 |
| 20260505100515 | 54 | 203 | 4.0 | 9.0 | 0.00 | 0.00 | 0.00 | 86 | 1010.4 |
| 20260505095515 | 54 | 203 | 3.0 | 7.0 | 0.00 | 0.00 | 0.00 | 87 | 1010.1 |
| 20260505094515 | 54 | 203 | 3.0 | 7.0 | 0.00 | 0.00 | 0.00 | 87 | 1010.1 |
| 20260505093515 | 53 | 203 | 3.0 | 6.0 | 0.00 | 0.00 | 0.00 | 87 | 1010.3 |
| 20260505092535 | 53 | 203 | 3.0 | 6.0 | 0.00 | 0.00 | 0.00 | 87 | 1010.3 |
| 20260505091515 | 53 | 203 | 3.0 | 8.0 | 0.00 | 0.00 | 0.00 | 87 | 1010.2 |
| 20260505090535 | 53 | 203 | 3.0 | 8.0 | 0.00 | 0.00 | 0.00 | 87 | 1010.3 |
| 20260505085555 | 53 | 203 | 3.0 | 9.0 | 0.00 | 0.00 | 0.00 | 87 | 1010.3 |
| 20260505084535 | 53 | 203 | 3.0 | 7.0 | 0.00 | 0.00 | 0.00 | 87 | 1010.3 |
| 20260505083515 | 53 | 203 | 4.0 | 9.0 | 0.00 | 0.00 | 0.00 | 87 | 1010.3 |
| 20260505082535 | 53 | 203 | 5.0 | 11.0 | 0.00 | 0.00 | 0.00 | 87 | 1010.3 |
| 20260505081515 | 54 | 203 | 4.0 | 10.0 | 0.00 | 0.00 | 0.00 | 86 | 1010.4 |
| 20260505080515 | 53 | 180 | 4.0 | 12.0 | 0.00 | 0.00 | 0.00 | 86 | 1010.4 |
| 20260505075515 | 53 | 203 | 6.0 | 11.0 | 0.00 | 0.00 | 0.00 | 86 | 1010.3 |
| 20260505074515 | 53 | 203 | 5.0 | 13.0 | 0.00 | 0.00 | 0.00 | 86 | 1010.3 |
| 20260505073515 | 54 | 203 | 6.0 | 14.0 | 0.00 | 0.00 | 0.00 | 86 | 1010.3 |
| 20260505072515 | 54 | 180 | 5.0 | 11.0 | 0.00 | 0.00 | 0.00 | 86 | 1010.4 |
| 20260505071515 | 54 | 203 | 6.0 | 13.0 | 0.00 | 0.00 | 0.00 | 85 | 1010.4 |
| 20260505070515 | 54 | 203 | 5.0 | 12.0 | 0.00 | 0.00 | 0.00 | 85 | 1010.3 |
| 20260505065515 | 54 | 203 | 5.0 | 10.0 | 0.00 | 0.00 | 0.00 | 85 | 1010.5 |
| 20260505064535 | 54 | 203 | 4.0 | 9.0 | 0.00 | 0.00 | 0.00 | 85 | 1010.4 |
| 20260505063515 | 54 | 203 | 5.0 | 10.0 | 0.00 | 0.00 | 0.00 | 84 | 1010.4 |
| 20260505062535 | 54 | 203 | 5.0 | 13.0 | 0.00 | 0.00 | 0.00 | 84 | 1010.6 |
| 20260505061515 | 54 | 203 | 5.0 | 10.0 | 0.00 | 0.00 | 0.00 | 84 | 1010.5 |
| 20260505060515 | 55 | 203 | 5.0 | 10.0 | 0.00 | 0.00 | 0.00 | 83 | 1010.7 |
| 20260505055515 | 55 | 203 | 5.0 | 12.0 | 0.00 | 0.00 | 0.00 | 82 | 1010.7 |
| 20260505054515 | 55 | 203 | 6.0 | 9.0 | 0.00 | 0.00 | 0.00 | 82 | 1010.8 |
| 20260505053515 | 55 | 203 | 7.0 | 17.0 | 0.00 | 0.00 | 0.00 | 81 | 1010.8 |
| 20260505052515 | 55 | 203 | 5.0 | 12.0 | 0.00 | 0.00 | 0.00 | 80 | 1010.9 |
| 20260505051515 | 56 | 203 | 5.0 | 10.0 | 0.00 | 0.00 | 0.00 | 79 | 1010.8 |
| 20260505050517 | 56 | 180 | 6.0 | 14.0 | 0.00 | 0.00 | 0.00 | 78 | 1010.9 |
| 20260505041517 | 58 | 203 | 5.0 | 11.0 | 0.00 | 0.00 | 0.00 | 72 | 1011.2 |
| 20260505040517 | 57 | 203 | 5.0 | 9.0 | 0.00 | 0.00 | 0.00 | 71 | 1011.3 |